Location: Melbourne
(37.8170°S, 144.9670°E)
Time: 08:13:35
(UTC+11:00)

ADEOS Rocket - Visible Passes

Search period start: 21 October 2014 00:00
Search period end: 31 October 2014 00:00
Orbit: 860 x 1307 km, 98.7° (Epoch: 20 October)

Date Brightness Start Highest point End Pass type
(mag) Time Alt. Az. Time Alt. Az. Time Alt. Az.
21 Oct 5.6 00:47:40 10° SW 00:49:00 11° WSW 00:50:19 10° WSW visible
21 Oct 3.7 22:09:33 10° SSE 22:14:02 40° ESE 22:14:02 40° ESE visible
21 Oct 4.6 23:55:43 10° SSW 00:00:44 27° WSW 00:01:01 27° WSW visible
22 Oct 4.6 21:22:05 10° SE 21:24:44 17° ESE 21:24:44 17° ESE visible
22 Oct 3.4 23:06:02 10° S 23:11:43 64° SW 23:11:43 64° SW visible
23 Oct 3.4 22:17:10 10° SSE 22:22:25 51° ESE 22:22:25 51° ESE visible
24 Oct 4.9 00:03:41 10° SSW 00:08:27 24° WSW 00:09:23 23° WSW visible
24 Oct 4.4 21:29:21 10° SE 21:33:07 22° E 21:33:07 22° E visible
24 Oct 3.6 23:13:50 10° S 23:19:54 56° WSW 23:20:06 56° W visible
25 Oct 3.2 22:24:49 10° SSE 22:30:48 63° E 22:30:48 63° E visible
26 Oct 5.1 00:11:41 10° SSW 00:16:10 21° WSW 00:17:47 19° W visible
26 Oct 4.2 21:36:45 10° SE 21:41:31 27° E 21:41:31 27° E visible
26 Oct 3.9 23:21:39 10° S 23:27:41 49° WSW 23:28:30 46° W visible
27 Oct 3.1 22:32:31 10° SSE 22:38:56 75° ENE 22:39:13 74° NE visible
28 Oct 5.3 00:19:45 10° SSW 00:23:53 18° WSW 00:26:11 15° W visible
28 Oct 3.9 21:44:13 10° SE 21:49:55 32° E 21:49:55 32° E visible
28 Oct 4.2 23:29:29 10° S 23:35:27 42° WSW 23:36:54 38° W visible
29 Oct 4.9 20:58:03 10° ESE 21:00:39 13° E 21:00:39 13° E visible
29 Oct 3.1 22:40:14 10° SSE 22:46:45 86° ENE 22:47:37 71° N visible
30 Oct 5.5 00:27:53 10° SSW 00:31:34 16° WSW 00:34:36 12° W visible
30 Oct 3.8 21:51:45 10° SSE 21:57:51 38° E 21:58:20 37° ENE visible
30 Oct 4.4 23:37:22 10° S 23:43:14 37° WSW 23:45:19 31° WNW visible
